Rensselaer, IN

11:49 PM CST on December 09, 2019 (GMT -0600)
Jasper County

Weather History for KRZL - November, 2019

Change the Weather History Date:

Tuesday, November 19, 2019

  Actual Average (KIKK) Record (KIKK)
Temperature  
Mean Temperature 37 °F -  
Max Temperature 42 °F 51 °F 70 °F (1979)
Min Temperature 32 °F 33 °F 16 °F (1989)
Degree Days  
Heating Degree Days 28    
Moisture  
Dew Point 35 °F    
Average Humidity 94    
Maximum Humidity 100    
Minimum Humidity 81    
Precipitation  
Precipitation 0.01 in - - ()
Sea Level Pressure  
Sea Level Pressure 29.85 in    
Wind  
Wind Speed 1 mph ()    
Max Wind Speed 7 mph    
Max Gust Speed -    
Visibility 5.4 miles    
Events Rain    
Averages and records for this station are not official NWS values.
T = Trace of Precipitation, MM = Missing Value Source: Averaged Metar Reports

Daily Weather History Graph

Daily Weather History Graph

Search for Another Location

Airport or City:

Astronomy

Nov. 19, 2019 Rise Set
Actual Time 6:40 AM CST 4:27 PM CST
Civil Twilight 6:10 AM CST 4:56 PM CST
Nautical Twilight 5:37 AM CST 5:30 PM CST
Astronomical Twilight 5:04 AM CST 6:03 PM CST
Moon 11:22 PM CST (11/19) 12:50 PM CST (11/19)
Length of Visible Light 10h 46m
Length of Day
9h 46m
Waning Gibbous, 51% of the Moon is Illuminated
Nov 19
Waning Gibbous
Nov 19
Last Quarter
Nov 26
New
Dec 4
First Quarter
Dec 11
Full

Hourly Weather History & Observations

Time (CST) Temp. Windchill Dew Point Humidity Pressure Visibility Wind Dir Wind Speed Gust Speed Precip Events Conditions
12:15 AM 35.6 °F - 33.8 °F 93% 29.78 in 10.0 mi Calm Calm - N/A   Overcast
12:35 AM 35.6 °F - 33.8 °F 93% 29.78 in 10.0 mi Calm Calm - N/A   Overcast
12:55 AM 35.6 °F - 33.8 °F 93% 29.78 in 10.0 mi Calm Calm - N/A   Overcast
1:15 AM 35.6 °F - 33.8 °F 93% 29.78 in 10.0 mi Calm Calm - N/A   Overcast
1:35 AM 35.6 °F - 33.8 °F 93% 29.77 in 10.0 mi Calm Calm - N/A   Overcast
1:55 AM 35.6 °F - 33.8 °F 93% 29.76 in 10.0 mi Calm Calm - N/A   Overcast
2:15 AM 33.8 °F - 32.0 °F 93% 29.76 in 10.0 mi Calm Calm - N/A   Overcast
2:35 AM 33.8 °F - 32.0 °F 93% 29.75 in 7.0 mi Calm Calm - N/A   Overcast
2:55 AM 33.8 °F - 32.0 °F 93% 29.75 in 7.0 mi Calm Calm - N/A   Overcast
3:15 AM 33.8 °F - 32.0 °F 93% 29.74 in 7.0 mi Calm Calm - N/A   Overcast
3:35 AM 33.8 °F - 32.0 °F 93% 29.74 in 10.0 mi Calm Calm - N/A   Overcast
3:55 AM 33.8 °F - 32.0 °F 93% 29.75 in 7.0 mi Calm Calm - N/A   Overcast
4:15 AM 32.0 °F - 32.0 °F 100% 29.75 in 7.0 mi Calm Calm - N/A   Mostly Cloudy
4:35 AM 32.0 °F - 32.0 °F 100% 29.75 in 7.0 mi Calm Calm - N/A   Mostly Cloudy
4:55 AM 32.0 °F - 32.0 °F 100% 29.76 in 7.0 mi Calm Calm - N/A   Mostly Cloudy
5:15 AM 32.0 °F - 32.0 °F 100% 29.75 in 7.0 mi Calm Calm - N/A   Scattered Clouds
5:55 AM 32.0 °F - 32.0 °F 100% 29.77 in 5.0 mi Calm Calm - N/A   Mostly Cloudy
6:15 AM 32.0 °F - 30.2 °F 93% 29.77 in 4.0 mi Calm Calm - N/A   Overcast
6:35 AM 32.0 °F - 30.2 °F 93% 29.76 in 5.0 mi Calm Calm - N/A   Overcast
6:55 AM 32.0 °F 27.5 °F 32.0 °F 100% 29.76 in 3.0 mi ENE 4.6 mph - N/A   Overcast
7:15 AM 32.0 °F - 32.0 °F 100% 29.78 in 3.0 mi Calm Calm - N/A   Overcast
7:35 AM 32.0 °F - 32.0 °F 100% 29.77 in 3.0 mi Calm Calm - N/A   Overcast
7:55 AM 33.8 °F 29.6 °F 32.0 °F 93% 29.76 in 4.0 mi ESE 4.6 mph - N/A   Overcast
8:15 AM 33.8 °F 27.7 °F 32.0 °F 93% 29.78 in 5.0 mi ESE 6.9 mph - N/A   Overcast
8:55 AM 35.6 °F 32.8 °F 33.8 °F 93% 29.79 in 5.0 mi East 3.5 mph - N/A Rain Rain
9:15 AM 35.6 °F 32.8 °F 33.8 °F 93% 29.80 in 2.0 mi ESE 3.5 mph - N/A Rain Rain
9:35 AM 35.6 °F 31.7 °F 33.8 °F 93% 29.80 in 5.0 mi ESE 4.6 mph - N/A   Drizzle
9:55 AM 35.6 °F 32.8 °F 35.6 °F 100% 29.81 in 4.0 mi ESE 3.5 mph - 0.01 in Rain Light Rain
10:15 AM 37.4 °F 32.8 °F 35.6 °F 93% 29.80 in 4.0 mi East 5.8 mph - N/A   Drizzle
10:35 AM 37.4 °F 32.1 °F 35.6 °F 93% 29.80 in 4.0 mi ESE 6.9 mph - N/A   Drizzle
10:55 AM 39.2 °F 34.2 °F 37.4 °F 93% 29.80 in 5.0 mi East 6.9 mph - N/A   Light Drizzle
11:15 AM 39.2 °F 35.0 °F 37.4 °F 93% 29.80 in 5.0 mi ESE 5.8 mph - N/A   Drizzle
11:35 AM 41.0 °F 37.1 °F 37.4 °F 87% 29.79 in 5.0 mi SE 5.8 mph - N/A   Light Drizzle
11:55 AM 41.0 °F 38.0 °F 37.4 °F 87% 29.79 in 5.0 mi ESE 4.6 mph - N/A   Light Drizzle
12:15 PM 41.0 °F 38.0 °F 37.4 °F 87% 29.79 in 5.0 mi SE 4.6 mph - N/A   Overcast
12:35 PM 41.0 °F 37.1 °F 37.4 °F 87% 29.79 in 5.0 mi SE 5.8 mph - N/A Rain Light Rain
12:55 PM 41.0 °F 37.1 °F 37.4 °F 87% 29.80 in 7.0 mi East 5.8 mph - N/A   Light Drizzle
1:15 PM 42.8 °F 39.3 °F 37.4 °F 81% 29.80 in 7.0 mi East 5.8 mph - N/A   Overcast
1:35 PM 42.8 °F 40.1 °F 37.4 °F 81% 29.81 in 7.0 mi East 4.6 mph - N/A   Overcast
1:55 PM 41.0 °F 39.0 °F 37.4 °F 87% 29.81 in 7.0 mi ESE 3.5 mph - N/A   Overcast
2:15 PM 42.8 °F - 37.4 °F 81% 29.82 in 7.0 mi Calm Calm - N/A   Overcast
2:35 PM 42.8 °F - 37.4 °F 81% 29.83 in 7.0 mi Calm Calm - N/A   Overcast
2:55 PM 41.0 °F - 37.4 °F 87% 29.84 in 7.0 mi Calm Calm - N/A   Overcast
3:15 PM 41.0 °F - 37.4 °F 87% 29.86 in 5.0 mi Calm Calm - N/A   Overcast
3:35 PM 41.0 °F 39.0 °F 39.2 °F 93% 29.86 in 5.0 mi NNE 3.5 mph - N/A   Overcast
3:55 PM 41.0 °F 37.1 °F 37.4 °F 87% 29.87 in 4.0 mi NNE 5.8 mph - N/A   Overcast
4:15 PM 41.0 °F 38.0 °F 37.4 °F 87% 29.88 in 5.0 mi NNE 4.6 mph - N/A   Overcast
4:35 PM 41.0 °F 39.0 °F 37.4 °F 87% 29.89 in 5.0 mi North 3.5 mph - N/A   Light Drizzle
4:55 PM 39.2 °F 37.0 °F 37.4 °F 93% 29.90 in 4.0 mi North 3.5 mph - N/A   Drizzle
5:15 PM 39.2 °F - 37.4 °F 93% 29.91 in 4.0 mi Calm Calm - N/A Rain Light Rain
5:35 PM 39.2 °F - 37.4 °F 93% 29.92 in 4.0 mi Calm Calm - N/A   Drizzle
5:55 PM 39.2 °F - 37.4 °F 93% 29.92 in 4.0 mi Calm Calm - N/A   Light Drizzle
6:15 PM 39.2 °F 37.0 °F 37.4 °F 93% 29.93 in 4.0 mi North 3.5 mph - N/A   Light Drizzle
6:35 PM 39.2 °F - 37.4 °F 93% 29.94 in 4.0 mi Calm Calm - N/A   Overcast
6:55 PM 39.2 °F - 37.4 °F 93% 29.95 in 4.0 mi Calm Calm - N/A   Overcast
7:15 PM 39.2 °F - 37.4 °F 93% 29.96 in 4.0 mi Calm Calm - N/A   Overcast
7:35 PM 37.4 °F - 37.4 °F 100% 29.96 in 4.0 mi Calm Calm - N/A   Overcast
7:55 PM 37.4 °F - 37.4 °F 100% 29.96 in 4.0 mi Calm Calm - N/A   Overcast
8:15 PM 37.4 °F - 37.4 °F 100% 29.96 in 4.0 mi Calm Calm - N/A   Overcast
8:35 PM 37.4 °F - 37.4 °F 100% 29.97 in 4.0 mi Calm Calm - N/A   Overcast
8:55 PM 37.4 °F - 37.4 °F 100% 29.98 in 3.0 mi Calm Calm - N/A   Overcast
9:15 PM 37.4 °F - 37.4 °F 100% 29.98 in 3.0 mi Calm Calm - N/A   Overcast
9:35 PM 37.4 °F - 37.4 °F 100% 29.98 in 3.0 mi Calm Calm - N/A   Overcast
9:55 PM 37.4 °F - 37.4 °F 100% 29.99 in 3.0 mi Calm Calm - N/A   Overcast
10:15 PM 37.4 °F - 37.4 °F 100% 29.99 in 4.0 mi Calm Calm - N/A   Overcast
10:35 PM 37.4 °F - 37.4 °F 100% 29.99 in 3.0 mi Calm Calm - N/A   Overcast
10:55 PM 37.4 °F - 37.4 °F 100% 30.00 in 3.0 mi Calm Calm - N/A   Overcast
11:15 PM 37.4 °F - 37.4 °F 100% 30.01 in 3.0 mi Calm Calm - N/A   Overcast
11:35 PM 37.4 °F - 37.4 °F 100% 30.01 in 4.0 mi Calm Calm - N/A   Overcast
11:55 PM 37.4 °F - 37.4 °F 100% 30.02 in 4.0 mi Calm Calm - N/A   Overcast